This is the latest recevied weather packets stored in our database for station/object KB1FFS. If no packets are shown the sender has not sent any weather packets the latest 10 day(s).
| Time | Temp. | Humidity | Pressure | Rain* | Wind** | Luminosity | Snow |
|---|---|---|---|---|---|---|---|
| 1788014601 | 30.56° C | 58% | 1019.3 hPa | 0 mm | - | 306 W/m² | - |
| 1788014297 | 30.56° C | 59% | 1019.4 hPa | 0 mm | - | 287 W/m² | - |
| 1788013992 | 30° C | 61% | 1019.2 hPa | 0 mm | - | 268 W/m² | - |
| 1788013687 | 30° C | 61% | 1019.4 hPa | 0 mm | - | 249 W/m² | - |
| 1788013386 | 29.44° C | 62% | 1019.4 hPa | 0 mm | - | 230 W/m² | - |
| 1788013086 | 29.44° C | 62% | 1019.3 hPa | 0 mm | - | 208 W/m² | - |
| 1788012785 | 28.89° C | 64% | 1019.4 hPa | 0 mm | - | 180 W/m² | - |
| 1788012480 | 28.33° C | 65% | 1019.2 hPa | 0 mm | - | 111 W/m² | - |
| 1788012180 | 27.78° C | 65% | 1019.1 hPa | 0 mm | - | 72 W/m² | - |
| 1788011879 | 27.78° C | 66% | 1019.4 hPa | 0 mm | - | 48 W/m² | - |
| 1788011578 | 27.78° C | 67% | 1019.2 hPa | 0 mm | - | 43 W/m² | - |
| 1788011274 | 27.78° C | 69% | 1019.4 hPa | 0 mm | - | 42 W/m² | - |
| 1788010972 | 27.22° C | 68% | 1019.2 hPa | 0 mm | - | 40 W/m² | - |
| 1788010668 | 26.67° C | 70% | 1019.3 hPa | 0 mm | - | 39 W/m² | - |
| 1788010366 | 26.67° C | 71% | 1019.2 hPa | 0 mm | - | 38 W/m² | - |
| 1788010061 | 26.67° C | 71% | 1019.4 hPa | 0 mm | - | 37 W/m² | - |
| 1788009756 | 26.67° C | 74% | 1019.2 hPa | 0 mm | - | 35 W/m² | - |
| 1788009453 | 26.11° C | 73% | 1019.2 hPa | 0 mm | - | 33 W/m² | - |
| 1788009149 | 26.11° C | 74% | 1019.3 hPa | 0 mm | - | 32 W/m² | - |
| 1788008844 | 26.11° C | 74% | 1019.2 hPa | 0 mm | - | 30 W/m² | - |
| 1788008544 | 25.56° C | 75% | 1019.1 hPa | 0 mm | - | 28 W/m² | - |
| 1788008242 | 25.56° C | 75% | 1019.1 hPa | 0 mm | - | 26 W/m² | - |
| 1788007940 | 25.56° C | 75% | 1019.1 hPa | 0 mm | - | 24 W/m² | - |
| 1788007639 | 25.56° C | 75% | 1019 hPa | 0 mm | - | 24 W/m² | - |
| 1788007334 | 25° C | 76% | 1018.8 hPa | 0 mm | - | 20 W/m² | - |
* Rain latest hour (hover to see other rain measurements)
** Current wind speed in m/s (hover to see current wind gust speed)